User: anonymous   Login
Location: Unspecified
(0.0000°N, 0.0000°E)
Time: 23:58:32
(UTC+00:00)
Language:

Envisat - Orbit

View from above orbital plane
View from above orbital plane
View from above satellite
View from above satellite

Ground track
Ground track

The orbit data is extracted from the following two-line orbital elements,

1 27386U 02009A   22269.41773144  .00000106  00000-0  48665-4 0  9999
2 27386  98.1947 245.8418 0001221  86.2585  28.6766 14.38156812 78041
Epoch (UTC): 26 September 2022 10:01:31
Eccentricity: 0.0001221
inclination: 98.1947°
perigee height: 764 km
apogee height: 765 km
right ascension of ascending node: 245.8418°
argument of perigee: 86.2585°
revolutions per day: 14.38156812
mean anomaly at epoch: 28.6766°
orbit number at epoch: 7804

The dashed part of the orbit path shows where the satellite is in the earth's shadow,  

DLR